Weather History for KHEI - February, 2014

Change the Weather History Date:

Wednesday, February 26, 2014

  Actual Average Record
Temperature  
Mean Temperature 9 °F -  
Max Temperature 27 °F 34 °F 57 °F (2005)
Min Temperature -10 °F 13 °F -20 °F (2011)
Degree Days  
Heating Degree Days 56 42  
Month to date heating degree days 1416 1158  
Since 1 July heating degree days 6605 6234  
Moisture  
Dew Point -1 °F    
Average Humidity 60    
Maximum Humidity 83    
Minimum Humidity 42    
Precipitation  
Precipitation 0.00 in 0.02 in 0.25 in (1999)
Month to date precipitation 0.10 0.40  
Year to date precipitation 0.24 0.71  
Sea Level Pressure  
Sea Level Pressure 30.12 in    
Wind  
Wind Speed 16 mph (WNW)    
Max Wind Speed 35 mph    
Max Gust Speed 41 mph    
Visibility 10 miles    
Events      
T = Trace of Precipitation, MM = Missing Value Source: NWS Daily Summary

Daily Weather History Graph

Daily Weather History Graph

Search for Another Location

Airport or City:

Trip Planner

Search our weather history database for the weather conditions in past years. The results will help you decide how hot, cold, wet, or windy it might be!

Date:

Astronomy

Feb. 26, 2014 Rise Set
Actual Time 6:34 AM MST 5:32 PM MST
Civil Twilight 6:04 AM MST 6:03 PM MST
Nautical Twilight 5:30 AM MST 6:37 PM MST
Astronomical Twilight 4:55 AM MST 7:12 PM MST
Moon 4:29 AM MST (2/26) 2:44 PM MST (2/26)
Length of Visible Light 11h 58m
Length of Day
10h 58m
Waning Crescent, 9% of the Moon is Illuminated
Feb 26
Waning Crescent
Mar 1
New
Mar 8
First Quarter
Mar 16
Full
Mar 23
Last Quarter

Hourly Weather History & Observations

Time (MST) Temp. Windchill Dew Point Humidity Pressure Visibility Wind Dir Wind Speed Gust Speed Precip Events Conditions
12:53 AM -6.0 °F -23.6 °F -11.0 °F 79% 30.35 in 10.0 mi West 10.4 mph - N/A   Clear
1:53 AM -7.1 °F -22.8 °F -11.9 °F 79% 30.31 in 10.0 mi West 8.1 mph - N/A   Clear
2:53 AM -5.1 °F -13.6 °F -11.0 °F 76% 30.26 in 10.0 mi West 3.5 mph - N/A   Clear
3:53 AM -0.0 °F -19.4 °F -7.1 °F 72% 30.21 in 10.0 mi West 15.0 mph - N/A   Clear
4:53 AM 1.0 °F -19.9 °F -8.0 °F 66% 30.18 in 10.0 mi West 18.4 mph - N/A   Clear
5:53 AM 1.9 °F -16.2 °F -8.0 °F 63% 30.16 in 10.0 mi West 13.8 mph - N/A   Clear
6:53 AM 6.1 °F -12.8 °F -5.1 °F 60% 30.14 in 10.0 mi WNW 17.3 mph 25.3 mph N/A   Clear
7:53 AM 10.0 °F -9.1 °F -2.9 °F 56% 30.13 in 10.0 mi West 20.7 mph 27.6 mph N/A   Clear
8:53 AM 14.0 °F -5.1 °F -0.9 °F 52% 30.10 in 10.0 mi WNW 24.2 mph 32.2 mph N/A   Clear
9:53 AM 18.0 °F -1.4 °F 1.9 °F 50% 30.08 in 10.0 mi West 29.9 mph 34.5 mph N/A   Clear
10:53 AM 21.0 °F 3.3 °F 5.0 °F 50% 30.06 in 10.0 mi West 27.6 mph 33.4 mph N/A   Clear
11:53 AM 24.1 °F 6.6 °F 7.0 °F 48% 30.05 in 10.0 mi WNW 31.1 mph 40.3 mph N/A   Clear
12:53 PM 26.1 °F 10.4 °F 7.0 °F 44% 30.02 in 10.0 mi WNW 26.5 mph 34.5 mph N/A   Clear
1:53 PM 27.0 °F 12.2 °F 6.1 °F 41% 30.02 in 10.0 mi WNW 24.2 mph 34.5 mph N/A   Clear
2:53 PM 27.0 °F 12.8 °F 7.0 °F 43% 30.02 in 10.0 mi WNW 21.9 mph - N/A   Clear
3:53 PM 27.0 °F 12.8 °F 6.1 °F 41% 30.04 in 10.0 mi WNW 21.9 mph 27.6 mph N/A   Clear
4:53 PM 24.1 °F 10.6 °F 6.1 °F 46% 30.05 in 10.0 mi NW 17.3 mph - N/A   Clear
5:53 PM 17.1 °F 7.6 °F 6.1 °F 62% 30.08 in 10.0 mi NW 6.9 mph - N/A   Clear
6:53 PM 10.0 °F -0.9 °F 1.9 °F 70% 30.10 in 10.0 mi NW 6.9 mph - N/A   Clear
7:53 PM 10.0 °F -2.9 °F 1.0 °F 67% 30.12 in 10.0 mi NNE 9.2 mph - N/A   Clear
8:53 PM 8.1 °F -7.0 °F -2.0 °F 64% 30.13 in 10.0 mi NNE 11.5 mph - N/A   Clear
9:53 PM 5.0 °F -4.1 °F -4.0 °F 66% 30.13 in 10.0 mi NE 4.6 mph - N/A   Clear
10:53 PM 1.9 °F -11.8 °F -6.0 °F 69% 30.12 in 10.0 mi NE 8.1 mph - N/A   Clear
11:53 PM 1.0 °F -10.3 °F -8.0 °F 66% 30.12 in 10.0 mi ENE 5.8 mph - N/A   Clear